Terug naar catalogus

FENGYUN 1C DEB

ActiefSSO
NORAD 31767·DEBRIS·🇨🇳 China

Gelanceerd May 10, 1999 vanaf Taiyuan Satellite Launch Center

Loading…

Volgende Passages (komende 24 uur)

TLE

VerouderendSource: Space-Track

Epoch: Sep 9, 2026, 00:30 UTC

1 31767U 99025CFS 26252.02109756  .00000306  00000-0  21451-3 0  9991
2 31767  98.7964 278.8681 0041362  33.3374 357.5945 14.05088572986212

Volg FENGYUN 1C DEB in realtime met AllMySat

Download on the App Store